Temp
3 3 3 3 3 3 4 0 1 5 5 2 -1 0 2 4 3 4 3 4 4 2 2 2 3 2 2 5 4 4 4 2 2 2 3 3 2 2 2 4 6 4 4 7
3 3 3 3 3 3 2 -0 -1 4 4 0 -0 1 3 3 3 3 3 3 3 2 1 1 2 3 4 4 4 3 4 1 1 3 3 2 2 2 2 2 2 3 5 5
3 3 3 3 2 2 2 -1 -1 -1 -1 -1 -2 0 1 2 3 3 2 2 3 2 1 2 -0 2 3 3 3 6 3 2 2 2 2 3 3 3 3 1 1 1 1 3
3 3 3 2 2 2 2 -3 -2 -1 -1 0 -2 -2 -0 1 1 1 2 2 2 1 -2 0 0 2 2 2 3 2 1 -1 1 2 2 2 2 1 2 2 2 1 2 3
2 3 3 2 2 2 1 -2 -1 -2 -3 -2 -2 -2 -1 0 0 1 1 0 1 0 -0 -0 -1 0 1 1 0 0 -1 -3 0 -1 2 2 0 -2 -1 -0 1 2 0 2
3 3 3 2 2 2 0 1 0 -2 -2 -2 -4 -1 -1 0 0 1 1 1 -0 0 0 0 -1 -1 -1 -1 -1 -1 -1 -3 -2 -3 1 1 -3 -4 -3 -1 -2 -2 -1 -3
2 3 2 2 2 2 1 1 1 -3 -2 -1 -1 -1 -1 -1 -0 -1 0 0 -0 0 -0 -0 -1 -0 -1 -1 -1 -1 -1 -1 0 -3 1 -4 -4 -3 -3 -4 -2 -3 -4 -4
2 2 2 2 2 1 1 0 0 -5 -1 -1 0 -1 -2 -2 -1 -1 -1 -1 -0 -2 -1 -3 -1 -1 -1 -2 -2 -3 -3 -3 -2 -0 -2 -4 -4 -5 -5 -5 -5 -4 -5 -5
2 2 2 2 2 1 1 0 0 -1 -5 -3 -2 -3 -3 -3 -4 -3 -2 -1 -1 -1 0 -3 -3 -2 -2 -3 -3 -2 -3 -7 -8 -5 -5 -3 -6 -5 -4 -4 -5 -5 -5 -5
2 2 2 2 1 1 1 -0 -0 -1 -7 -4 -3 -5 -4 -3 -4 -7 -4 -3 -3 -2 -3 -1 -2 -4 -4 -7 -6 -6 -6 -7 -7 -5 -5 -4 -6 -5 -4 -6 -6 -5 -5 -5
2 2 2 1 1 1 0 -1 -0 -0 -9 -6 -2 -2 -7 -4 -5 -4 -3 -5 -5 -4 -3 -2 -3 -5 -6 -7 -6 -7 -7 -9 -6 -5 -5 -7 -6 -5 -7 -6 -6 -6 -6 -5
1 1 1 1 1 1 1 -1 -0 -0 -1 -4 -2 -1 -2 -3 -4 -4 -6 -4 -4 -4 -3 -5 -5 -4 -7 -9 -8 -6 -7 -7 -7 -7 -5 -5 -6 -6 -6 -7 -7 -6 -6 -6
1 1 1 1 1 1 0 -0 -1 -1 -5 -5 -2 -3 -2 -2 -3 -4 -7 -4 -4 -5 -3 -7 -8 -7 -5 -9 -7 -8 -7 -6 -7 -8 -7 -7 -7 -7 -7 -7 -7 -7 -6 -6
1 1 1 0 -0 0 1 -1 -1 -1 -4 -6 -5 -1 -2 -2 -2 -2 -3 -3 -3 -4 -6 -8 -9 -7 -6 -9 -9 -8 -8 -8 -8 -8 -7 -8 -6 -7 -8 -8 -7 -7 -7 -7
0 0 1 0 -0 -0 -0 -1 -1 -1 -2 -4 -5 -1 -1 -1 -2 -2 -2 -3 -7 -6 -6 -10 -10 -10 -8 -12 -9 -9 -8 -9 -9 -9 -8 -9 -8 -8 -8 -8 -8 -8 -7 -7
0 1 2 2 0 0 -0 -2 -0 -1 -1 -7 -5 -2 -2 -1 -0 -1 -3 -4 -9 -12 -10 -13 -11 -10 -8 -9 -8 -8 -8 -9 -10 -9 -9 -9 -8 -8 -9 -9 -8 -8 -8 -8
0 0 2 2 1 1 -1 -2 -1 -1 -1 -6 -6 -3 -3 -3 -2 -2 -3 -3 -10 -11 -14 -10 -10 -9 -8 -10 -9 -8 -9 -10 -10 -10 -10 -10 -10 -9 -9 -9 -9 -9 -8 -8
0 0 1 1 1 0 -0 -1 -0 -1 -1 -6 -12 -8 -4 -3 -6 -6 -4 -8 -8 -8 -13 -10 -8 -7 -8 -10 -10 -10 -10 -9 -10 -9 -10 -11 -10 -9 -9 -9 -9 -9 -9 -8
0 1 1 1 1 -0 -1 -1 -0 -1 -2 -11 -10 -8 -8 -5 -3 -4 -5 -10 -9 -10 -10 -9 -6 -10 -11 -10 -10 -10 -11 -12 -11 -11 -10 -10 -10 -9 -10 -9 -9 -9 -9 -9
1 1 1 -5 -1 -1 -1 -1 -5 -8 -8 -10 -9 -8 -10 -8 -6 -5 -5 -9 -10 -12 -9 -8 -11 -12 -11 -11 -14 -14 -14 -12 -10 -10 -10 -10 -10 -10 -10 -10 -9 -9 -9 -9
1 -1 -4 -1 -1 -1 -6 -10 -9 -11 -12 -11 -12 -12 -10 -6 -9 -7 -8 -10 -10 -12 -8 -10 -12 -13 -12 -11 -14 -11 -10 -10 -10 -10 -10 -10 -10 -10 -10 -10 -10 -10 -10 -10
-1 -1 -1 -1 -6 -9 -9 -14 -10 -10 -10 -10 -10 -9 -10 -9 -8 -9 -11 -11 -12 -9 -10 -12 -13 -13 -13 -16 -14 -12 -10 -10 -10 -10 -11 -11 -11 -11 -11 -11 -11 -11 -11 -11
-0 -2 -8 -7 -10 -8 -11 -13 -11 -12 -13 -13 -10 -9 -9 -9 -9 -13 -14 -12 -12 -12 -15 -14 -14 -16 -13 -14 -13 -11 -9 -9 -10 -10 -11 -11 -11 -11 -11 -12 -12 -12 -11 -11
-9 -11 -9 -11 -13 -12 -12 -12 -13 -10 -12 -10 -12 -11 -11 -9 -10 -14 -11 -13 -13 -16 -14 -13 -17 -15 -13 -12 -11 -11 -10 -10 -10 -11 -11 -12 -12 -12 -12 -12 -12 -12 -12 -12
-11 -10 -11 -11 -9 -12 -13 -15 -13 -11 -12 -12 -11 -10 -10 -11 -12 -10 -13 -13 -15 -13 -13 -15 -15 -14 -15 -12 -10 -10 -11 -11 -11 -11 -12 -12 -12 -12 -12 -12 -12 -12 -12 -12
-12 -12 -10 -9 -11 -13 -14 -15 -12 -10 -12 -9 -9 -13 -14 -13 -13 -12 -15 -14 -14 -13 -16 -13 -14 -11 -13 -11 -10 -10 -10 -10 -10 -11 -11 -11 -12 -12 -12 -12 -12 -12 -12 -12
-13 -12 -8 -10 -13 -11 -12 -10 -10 -9 -12 -12 -15 -12 -12 -15 -16 -13 -13 -14 -13 -14 -12 -11 -10 -10 -10 -10 -10 -10 -10 -10 -10 -11 -11 -11 -12 -12 -13 -13 -12 -12 -12 -12
Height
847 841 836 830 824 815 804 804 806 794 784 790 805 805 800 790 789 785 785 784 782 786 785 784 776 782 781 772 769 771 765 776 778 777 770 771 771 778 777 760 752 766 763 757
848 844 839 832 825 819 812 814 813 802 795 809 811 807 800 796 794 793 791 788 788 791 792 792 785 780 775 776 774 775 768 782 783 769 770 776 778 784 785 788 781 776 764 767
850 845 840 835 828 821 816 817 822 815 813 819 822 812 808 803 797 795 795 794 791 794 794 789 796 786 778 780 777 766 772 778 779 785 780 776 779 777 781 792 790 794 793 779
851 847 842 837 831 825 821 826 835 830 827 820 826 823 818 812 808 802 799 796 797 798 809 797 795 787 785 782 779 779 783 799 789 782 780 779 783 797 792 788 789 796 787 779
853 848 844 838 832 827 827 835 834 833 835 830 829 829 823 817 812 810 806 806 801 800 802 800 804 796 793 792 789 789 792 812 792 796 784 785 797 814 805 801 792 789 800 783
854 849 845 840 835 831 831 834 834 836 837 835 840 831 828 821 818 809 805 805 805 801 798 799 798 798 800 801 798 797 800 809 804 814 787 789 820 836 822 813 812 811 802 814
855 850 846 842 838 835 834 835 835 839 843 836 833 831 830 825 820 820 807 805 807 800 798 797 800 799 803 803 806 805 801 801 794 812 788 832 837 833 831 830 814 814 821 822
856 852 847 844 841 838 836 836 836 843 842 839 832 832 832 827 823 818 814 810 807 801 798 808 805 802 804 812 813 816 816 813 807 794 811 834 833 839 841 839 827 824 827 821
858 853 849 845 843 841 838 838 838 839 852 850 845 841 839 834 832 823 816 810 805 800 796 809 819 817 816 824 825 819 821 832 840 831 835 825 858 847 836 831 827 823 824 817
858 854 851 848 845 843 841 841 841 841 856 853 848 851 846 841 837 844 827 819 811 806 812 811 821 835 836 859 854 848 843 844 847 835 839 842 855 845 830 840 839 828 827 819
859 856 852 849 847 845 844 845 843 844 855 855 850 847 849 841 841 837 827 827 826 821 820 821 833 844 853 863 863 862 861 872 853 843 848 864 854 848 855 855 843 835 826 816
860 857 855 852 851 848 846 846 846 847 849 856 851 848 845 841 838 835 834 834 831 830 825 838 842 849 862 877 872 863 868 870 866 866 861 862 862 860 857 852 843 832 824 813
860 858 855 854 853 851 850 849 850 850 852 853 849 846 844 836 831 832 841 832 830 831 830 844 858 866 860 881 877 877 871 868 870 870 865 865 862 859 855 849 841 831 822 811
859 857 856 855 854 853 853 852 852 852 855 866 863 854 847 845 838 836 834 833 832 832 834 849 863 866 870 884 886 882 885 879 878 873 867 863 856 858 855 847 838 828 819 810
858 857 856 855 855 855 855 855 855 854 857 865 864 858 855 851 846 842 840 838 839 842 847 866 876 877 877 889 885 889 889 888 887 883 877 877 867 861 856 847 839 830 821 809
858 857 856 855 855 855 856 856 856 856 855 862 871 862 860 856 854 851 849 848 849 855 864 879 876 873 875 891 891 893 891 890 889 886 879 874 868 863 858 849 841 832 824 816
858 859 858 858 857 857 859 865 861 857 857 862 875 868 865 862 860 857 856 856 860 864 877 881 881 879 878 897 901 894 891 888 886 884 879 872 868 863 857 851 844 837 829 820
858 860 860 860 860 861 862 863 860 859 859 865 894 886 873 870 871 869 863 867 867 873 884 883 884 882 888 901 899 896 892 887 882 880 878 876 869 862 855 851 844 836 831 825
861 861 861 861 862 864 866 865 864 862 866 889 895 898 895 876 872 871 868 871 885 880 890 888 883 900 908 902 899 896 893 892 887 880 875 871 866 861 856 851 844 840 834 829
862 862 861 867 867 866 866 866 867 871 879 886 899 895 899 888 880 875 874 879 891 905 894 886 902 911 900 898 898 895 892 889 884 879 872 868 864 861 857 854 850 846 839 832
863 863 867 868 867 867 871 886 890 897 907 901 903 902 901 887 893 886 885 891 891 911 893 898 910 915 903 895 894 890 887 885 883 881 877 873 869 864 860 855 852 847 843 838
866 866 868 869 873 879 890 916 903 907 912 904 905 901 898 892 887 890 894 900 903 902 896 907 919 909 898 897 893 888 886 883 880 877 874 871 868 864 860 856 852 848 845 840
867 869 877 883 895 901 920 934 919 920 914 910 905 904 899 893 891 902 907 910 913 904 922 922 913 903 894 891 889 885 883 881 878 874 872 869 866 862 859 855 851 848 843 840
875 890 902 912 926 921 921 922 921 908 907 905 906 906 904 896 898 908 907 910 909 933 931 916 911 898 890 886 884 882 879 877 875 872 869 866 863 859 857 854 851 847 843 840
890 894 920 916 908 912 912 912 911 905 904 904 905 903 904 903 907 903 913 917 931 918 916 911 897 889 887 883 880 878 876 873 870 867 865 863 860 858 855 852 849 846 844 840
893 903 911 908 913 916 913 913 910 903 903 903 903 913 917 916 914 914 929 929 928 910 908 892 888 884 882 879 876 874 872 869 866 864 861 858 856 853 851 849 847 844 842 839
904 910 903 906 910 911 909 906 904 902 905 911 917 916 915 919 930 919 914 917 903 895 888 883 881 880 877 874 872 869 867 864 862 859 857 855 852 850 847 844 842 841 840 837
Wind_Speed
28 29 29 31 33 34 28 6 4 27 25 9 3 3 4 7 10 4 6 5 5 4 5 5 5 3 1 8 6 4 4 2 4 3 11 13 13 7 7 3 2 2 1 3
26 28 26 30 31 30 15 3 2 13 20 6 5 6 6 5 9 5 6 4 5 5 5 4 4 3 2 9 7 3 4 2 3 1 4 5 6 7 5 4 1 5 1 2
26 26 25 29 29 27 10 3 4 4 4 2 3 5 7 11 6 3 7 3 4 5 4 2 5 6 3 7 4 8 4 2 2 2 1 2 3 8 6 3 2 5 4 7
25 26 26 27 25 23 8 4 1 1 4 7 6 5 7 9 10 5 6 5 10 6 3 4 2 3 8 6 9 4 3 2 2 3 4 3 6 12 10 2 4 4 5 14
24 24 25 25 22 19 7 3 3 4 3 4 5 7 4 11 12 3 5 7 11 6 2 1 5 4 1 3 6 4 4 0 1 3 3 5 9 17 15 10 7 5 11 10
24 24 25 24 19 17 6 4 2 2 5 5 3 5 8 10 9 5 3 4 5 6 4 9 7 3 4 5 4 4 4 2 3 3 1 6 5 16 12 12 12 9 7 10
25 23 24 22 19 16 7 5 1 2 3 4 5 6 10 13 11 6 7 3 6 4 12 4 10 16 18 17 15 12 3 0 2 3 1 3 5 13 8 13 8 9 15 14
22 22 22 20 19 15 14 8 3 2 2 6 5 10 9 9 9 7 5 7 6 11 4 3 3 3 2 8 16 18 11 3 1 1 4 4 12 14 12 11 10 5 19 21
19 20 19 18 18 13 11 10 4 2 3 7 9 4 6 5 6 6 4 6 15 5 2 3 3 4 5 6 7 11 12 6 4 3 3 3 8 15 17 4 8 20 23 23
17 19 17 17 16 12 12 9 7 6 3 4 4 3 5 5 5 2 5 9 7 6 3 4 4 3 4 4 6 7 7 4 8 6 3 6 18 16 14 3 9 26 22 23
17 17 15 15 14 12 9 8 8 7 3 4 4 6 3 5 1 2 5 4 5 4 5 3 3 3 3 3 3 5 7 3 4 5 5 4 19 8 9 10 13 19 19 21
16 15 13 12 9 14 9 7 10 12 9 3 5 10 16 10 10 3 2 2 2 2 2 3 3 4 3 1 3 6 5 5 2 4 3 7 13 8 9 13 16 13 19 21
15 12 9 9 7 9 15 12 12 4 4 4 9 13 27 24 12 4 2 1 3 3 2 2 2 6 3 3 4 4 8 11 3 5 3 16 11 12 15 17 16 18 16 19
14 9 7 7 7 7 14 15 5 4 4 3 4 21 29 23 21 16 5 0 6 4 3 4 3 3 3 2 3 4 4 5 8 4 4 13 1 15 16 19 18 19 21 17
12 6 7 5 4 2 5 16 19 11 2 2 2 7 25 28 28 28 28 24 6 5 5 4 2 2 3 1 2 4 5 4 4 3 10 8 12 14 17 18 17 19 19 20
8 6 9 8 4 1 1 3 8 14 4 3 2 2 10 22 20 26 24 17 6 3 3 1 2 2 3 3 2 6 7 6 3 4 13 12 10 14 21 15 18 24 21 23
4 8 13 17 18 16 9 2 12 7 2 3 3 3 9 18 7 8 6 13 3 3 1 3 2 4 3 3 2 8 9 7 7 4 10 5 5 10 19 20 23 23 22 25
8 9 8 7 6 7 8 15 15 4 8 7 3 3 3 12 3 3 8 3 3 5 2 2 2 2 2 3 4 5 6 9 6 11 11 8 13 15 17 20 22 17 15 21
10 7 4 3 4 4 3 5 9 18 10 3 3 2 3 9 2 2 2 2 3 2 2 2 2 2 3 3 4 5 6 4 8 11 8 9 9 12 12 17 18 15 15 19
6 1 2 3 3 4 2 2 6 9 9 4 2 1 2 2 3 2 3 2 1 2 3 1 3 2 3 4 5 5 6 6 9 10 14 15 14 13 14 13 16 17 18 20
1 3 2 2 4 2 6 3 4 3 5 3 2 2 1 2 1 2 2 1 1 3 3 3 1 1 3 4 5 11 12 12 11 10 11 14 13 11 11 13 16 17 18 18
5 7 5 4 8 4 6 2 3 4 0 3 1 3 2 3 2 2 3 2 3 1 2 3 1 3 5 3 5 9 11 10 12 13 13 13 13 14 14 14 15 16 17 17
3 4 5 4 4 10 5 4 4 3 2 2 3 4 2 3 2 2 3 4 2 1 4 2 4 3 4 5 4 8 13 11 12 12 11 13 13 14 13 15 16 17 18 17
4 4 6 3 4 0 3 3 3 4 2 2 0 2 1 2 3 0 3 2 2 3 3 4 3 5 5 5 9 6 8 11 11 12 13 12 13 14 16 14 15 16 16 17
3 4 2 2 2 1 2 2 2 2 1 2 2 1 1 2 3 2 2 5 2 4 4 3 4 5 4 5 6 8 11 14 15 17 14 14 13 12 14 15 15 12 12 14
4 5 3 0 3 3 3 1 2 2 1 1 1 1 3 2 1 3 3 4 4 4 3 3 3 4 4 5 11 13 15 16 17 18 17 17 17 15 16 15 12 11 12 13
4 1 1 2 2 3 2 3 2 2 2 0 2 3 5 1 3 2 3 4 3 4 3 3 4 5 6 14 16 16 18 18 19 18 17 16 18 17 16 14 14 12 11 12
Wind_Direction
6 3 1 1 358 353 357 2 29 354 6 45 22 29 343 351 347 350 12 4 11 357 345 1 40 83 258 342 340 6 356 20 20 340 91 81 72 45 29 339 42 21 137 135
6 4 0 358 356 359 349 360 296 3 29 34 6 330 1 360 4 14 9 333 38 2 351 351 28 8 249 17 356 336 330 115 10 267 180 62 44 27 51 308 335 49 18 179
6 4 1 356 355 356 0 32 10 340 26 67 9 354 358 1 2 343 351 350 25 350 340 334 316 314 328 348 305 343 41 54 132 229 334 355 41 31 21 93 14 353 279 307
4 360 359 358 360 3 10 25 33 9 338 2 356 22 355 353 355 345 354 357 351 333 294 309 281 3 327 342 358 27 64 133 77 265 282 2 5 29 1 330 207 230 291 300
0 360 359 4 5 10 65 60 1 3 317 324 11 357 338 356 350 287 336 349 327 321 264 290 297 320 333 317 347 32 10 359 136 294 228 206 78 15 359 11 5 330 332 291
2 1 1 5 11 23 57 41 2 89 329 333 32 12 338 342 350 303 316 314 311 316 5 318 288 272 22 24 6 350 5 32 42 305 302 124 44 7 347 335 326 317 331 10
2 2 5 7 13 23 41 34 13 55 350 359 2 352 357 336 334 304 293 343 355 288 325 316 71 86 76 59 45 34 355 221 225 243 341 37 138 19 341 330 289 24 9 345
358 6 10 15 19 26 62 48 50 102 34 354 354 356 341 321 327 329 305 350 307 305 282 88 146 149 166 75 46 27 20 327 87 290 64 133 20 352 336 343 297 23 351 332
360 7 12 16 20 27 58 39 36 82 102 4 328 324 337 337 330 325 290 316 315 337 25 60 49 34 352 10 359 15 12 42 85 20 77 100 357 333 317 282 277 352 340 328
3 8 13 18 22 25 40 45 33 81 101 316 351 11 328 312 299 269 305 340 340 355 23 54 29 55 27 22 16 336 352 359 31 16 50 102 10 340 327 39 319 324 325 316
5 9 16 24 32 35 38 51 54 105 117 284 321 332 297 316 311 297 310 360 350 348 40 67 39 54 48 84 0 347 15 23 6 3 28 1 6 347 17 310 310 312 314 310
3 8 18 30 43 35 62 80 98 93 82 220 328 353 358 332 290 265 304 184 286 271 49 51 69 50 49 78 27 353 41 359 328 27 33 357 336 331 329 325 317 318 315 317
1 5 24 38 57 48 53 106 120 64 74 356 27 6 8 26 23 185 100 310 344 16 31 121 117 74 27 54 15 347 354 13 23 345 8 341 319 338 342 336 327 322 328 325
0 8 41 52 82 79 44 67 56 53 90 86 311 26 28 41 57 49 35 120 49 68 57 70 80 97 43 37 144 59 344 337 318 288 348 325 285 344 336 330 334 339 342 344
5 39 46 38 116 93 69 62 48 39 104 146 277 9 28 42 56 61 60 61 50 52 64 61 74 77 85 352 76 36 352 344 4 301 332 307 293 325 328 335 341 339 347 350
17 68 49 42 118 106 318 13 32 20 44 93 43 355 8 10 36 46 41 38 47 67 89 154 26 274 96 74 55 3 349 332 306 308 312 304 298 321 334 337 342 344 348 357
74 101 81 78 78 80 66 73 309 355 41 71 35 0 353 354 4 11 21 35 47 81 71 35 62 5 54 70 52 329 323 311 307 296 322 315 310 322 336 346 345 345 353 2
124 118 110 84 81 81 49 31 31 50 91 61 69 314 345 10 333 351 10 23 24 14 157 13 43 4 46 63 275 302 308 325 303 331 320 271 297 327 346 351 351 355 2 359
130 130 107 66 47 51 14 17 27 50 63 97 64 18 298 350 316 302 342 61 45 285 64 11 72 342 42 262 300 309 314 309 293 308 309 325 339 342 345 352 355 356 352 359
133 116 60 22 11 344 4 40 26 24 7 28 75 335 293 31 346 322 341 23 96 64 271 59 74 234 235 254 241 259 288 296 314 337 343 342 342 343 343 345 346 349 348 352
75 51 82 32 12 42 39 42 56 342 22 9 285 165 289 337 27 299 64 220 2 65 268 110 353 302 258 270 297 310 311 321 318 311 308 317 315 325 330 334 342 345 349 350
83 104 88 36 30 34 74 359 351 54 268 323 359 296 233 293 335 49 342 103 30 249 317 71 334 249 252 280 282 299 312 315 322 329 316 323 322 328 324 327 331 337 342 345
70 58 48 35 324 40 66 337 324 360 315 305 340 320 326 322 38 50 52 59 243 358 40 223 226 257 277 272 272 293 320 316 319 317 319 319 322 326 328 325 331 338 343 349
63 64 27 78 346 122 177 191 211 251 172 307 284 273 302 316 6 181 66 239 63 40 29 244 251 246 272 292 299 294 306 311 309 311 316 314 316 316 328 331 332 333 338 342
76 64 57 80 207 260 236 225 330 264 204 45 355 317 8 325 35 50 47 18 333 201 232 236 240 253 264 282 289 295 302 311 314 318 313 313 314 307 311 323 326 326 328 334
73 53 72 337 62 306 341 357 271 273 333 233 59 59 36 328 113 43 208 114 228 252 222 236 254 271 272 281 300 303 310 307 307 314 315 312 312 310 311 314 317 320 320 323
54 345 347 114 118 197 228 190 246 309 71 303 93 52 226 9 26 310 188 206 221 222 246 241 249 265 281 299 304 308 312 310 313 311 310 304 311 311 309 307 316 318 311 315